RH
96 98 95 93 97 89 84 94 95 91 95 97 96 73 77 84 87 90 82 80 75 72 75 75 77 84 86 94 94 85 72 70 73 70 74 76 74 70 62 53 47 39 25 14 9 7 5 4 5 9 20 16 22 48
97 97 96 95 98 95 91 84 88 90 90 97 97 74 75 86 86 85 86 81 83 87 79 82 80 84 93 94 95 95 80 78 80 80 82 88 84 83 75 65 55 51 47 29 16 11 8 5 4 4 8 20 23 21
97 99 99 98 97 95 96 88 79 82 71 97 98 72 73 86 87 85 85 85 86 91 89 98 88 91 97 93 93 96 87 80 84 83 82 91 83 86 82 75 67 57 53 50 34 21 12 9 5 4 4 8 17 30
100 98 98 98 95 94 90 86 84 72 91 97 96 65 77 90 90 83 88 89 90 82 88 85 84 87 88 93 92 94 90 84 89 88 83 92 87 87 90 88 78 71 62 58 54 40 23 14 11 6 4 5 8 17
100 100 100 94 94 94 96 91 91 77 93 98 95 67 86 94 87 85 92 93 92 82 75 79 79 77 79 88 90 93 92 88 90 94 85 92 89 78 87 93 84 80 72 66 60 60 49 26 16 13 8 5 5 8
99 99 96 83 93 94 100 96 98 87 96 93 94 88 90 93 87 82 82 98 91 80 68 71 71 72 72 78 83 87 86 91 93 99 89 96 93 80 75 90 88 84 80 77 71 65 68 58 30 18 17 10 6 6
99 99 85 100 93 87 98 97 98 94 97 92 94 97 96 98 99 93 86 79 84 90 90 77 79 75 75 74 79 77 84 89 94 95 84 100 96 81 76 87 87 88 84 82 82 77 74 81 72 35 21 22 13 6
100 93 88 100 79 95 97 90 95 97 96 96 90 90 99 99 97 91 96 97 98 95 94 88 78 78 75 70 71 72 75 82 88 93 81 95 93 82 80 84 84 85 84 83 85 87 82 85 89 84 39 25 24 14
75 94 88 88 99 99 97 96 98 97 97 94 88 91 99 97 84 82 97 98 98 99 98 96 86 81 75 77 78 74 76 75 78 82 76 88 91 87 88 84 87 87 84 86 79 86 86 89 95 98 88 35 26 24
86 95 99 86 99 97 96 96 97 97 97 86 82 88 91 100 90 84 92 98 98 99 98 95 87 91 87 86 81 81 77 76 76 78 76 80 89 93 92 87 83 86 86 90 87 90 92 97 100 100 100 66 30 26
67 98 86 90 99 98 96 98 98 96 98 90 77 85 98 99 91 94 97 98 93 97 98 97 97 95 93 89 90 94 89 86 81 74 85 81 90 90 90 84 82 82 86 88 92 95 100 100 100 100 100 94 42 30
68 86 86 99 98 99 100 98 98 96 93 95 96 94 93 91 81 97 97 96 97 96 98 98 99 97 96 94 95 90 90 93 91 84 96 87 92 92 91 86 87 87 89 92 99 100 100 100 100 100 100 100 49 33
72 70 91 98 98 97 98 97 94 97 92 80 75 74 72 65 85 96 96 100 100 99 98 98 99 98 99 99 96 94 92 94 86 93 87 87 94 93 93 90 90 92 95 100 100 100 100 100 100 100 100 94 47 33
69 72 88 97 100 98 97 87 100 95 86 81 70 63 65 77 96 95 95 96 96 98 97 98 99 100 99 99 100 100 98 93 87 89 96 93 100 99 96 94 96 99 100 100 100 100 100 100 100 100 100 67 46 31
82 86 98 98 98 98 98 90 87 89 87 82 70 60 66 100 98 97 98 96 98 98 99 99 98 99 100 100 100 100 100 100 98 99 100 99 100 100 100 100 100 100 100 100 100 100 100 100 100 100 91 57 45 30
93 99 100 98 98 97 96 96 93 90 79 72 53 63 88 92 100 98 98 98 99 99 100 100 100 99 92 100 100 100 99 100 100 100 100 100 100 100 100 100 100 100 100 99 100 100 98 86 94 97 67 55 41 32
92 86 100 98 98 96 95 97 96 79 58 55 51 51 88 100 100 100 100 100 100 99 100 100 100 100 100 100 100 100 100 100 100 100 100 100 100 100 100 100 100 100 100 100 100 65 55 74 91 77 63 56 42 36
94 100 99 98 97 96 94 96 91 68 50 41 50 94 100 97 100 99 99 100 100 100 100 100 100 100 100 100 100 100 100 100 100 100 100 100 100 100 100 100 100 100 98 77 48 41 50 69 78 67 70 57 44 44
99 97 97 99 99 98 93 76 94 71 26 18 29 65 73 60 22 14 15 21 32 46 57 80 96 93 100 100 100 100 100 100 100 100 100 100 100 100 100 100 100 72 33 32 28 35 60 71 71 76 70 63 57 54
98 98 100 98 98 99 94 84 41 10 9 8 9 10 11 12 12 13 13 15 18 26 41 52 76 100 100 100 100 100 100 100 100 100 100 100 100 100 100 93 30 17 19 17 20 39 65 80 82 78 80 68 70 66
99 100 99 99 99 96 54 14 8 9 9 10 11 12 13 15 16 16 16 18 21 22 27 38 68 99 100 100 100 100 100 100 100 100 100 100 100 99 39 10 9 11 12 14 29 52 76 71 71 94 88 80 79 78
100 99 98 90 46 11 8 10 10 11 11 12 13 15 18 19 20 21 24 25 22 25 25 34 56 73 99 100 100 100 100 100 100 100 100 99 60 15 6 6 8 10 12 17 30 40 43 59 83 100 100 92 87 62
28 18 10 7 7 8 13 12 12 12 13 16 19 20 22 24 27 28 28 26 24 22 31 50 74 98 100 100 100 100 100 100 100 100 72 16 5 5 5 7 8 10 13 14 25 33 49 69 90 100 100 94 100 76
8 8 8 9 11 15 20 13 12 15 18 18 20 23 28 29 30 29 29 23 26 33 47 77 100 100 100 100 100 100 100 98 68 19 8 4 5 6 7 8 9 10 13 18 23 37 56 71 96 100 100 98 88 88
17 22 25 28 27 24 24 37 36 27 23 24 26 31 29 32 28 23 19 29 42 70 89 99 100 100 100 100 100 99 72 34 10 5 4 4 5 6 7 8 9 11 14 21 30 44 60 70 97 100 100 100 100 95
50 74 79 78 81 78 45 23 24 30 35 35 33 30 24 20 17 19 39 52 73 94 100 100 100 100 100 91 71 38 13 6 4 4 5 5 6 7 7 8 10 12 16 26 36 52 63 74 100 100 100 100 100 100
94 85 78 67 41 34 39 51 54 51 41 32 25 22 20 25 29 55 66 85 98 100 100 100 97 87 59 27 13 6 5 5 5 5 6 6 7 8 8 10 12 16 24 33 51 66 77 98 100 100 100 100 100 100
34 29 29 37 54 58 50 40 30 26 24 26 28 40 52 64 77 94 100 99 100 100 96 85 60 30 12 6 5 5 4 5 5 6 7 7 8 9 10 11 15 23 47 69 79 83 100 100 100 100 100 100 100 100
66 69 59 42 34 30 27 24 23 24 34 49 72 95 100 100 100 100 100 99 91 70 43 19 10 5 5 4 4 5 5 6 6 7 8 9 9 10 12 15 22 44 75 91 96 100 100 100 100 100 100 100 100 100
37 34 33 32 28 24 28 39 58 86 100 100 100 100 100 100 100 95 81 59 35 16 8 5 5 5 5 5 6 6 6 7 8 9 9 10 11 12 14 19 30 52 90 100 100 100 100 100 100 100 100 100 100 100
30 30 32 41 64 91 100 100 100 100 100 100 100 100 100 77 57 33 15 8 5 5 5 5 5 5 5 6 6 8 9 9 8 9 9 10 13 17 20 24 41 76 100 100 100 100 100 100 100 100 100 100 100 100
56 68 83 99 100 100 100 100 100 100 100 96 77 49 20 7 5 5 5 5 5 5 5 5 5 6 6 7 8 8 8 9 9 10 13 16 19 20 22 31 64 100 100 100 100 100 100 100 100 100 100 100 100 100
99 100 100 100 100 100 99 95 77 52 29 12 6 5 5 5 5 5 6 5 5 6 6 8 9 9 9 9 9 9 9 10 13 16 18 18 20 23 26 39 77 100 100 100 100 100 100 100 100 100 100 100 100 100
Wind_Speed
19 20 23 26 27 28 28 31 29 30 34 34 29 28 28 28 28 29 32 35 37 39 41 44 45 45 44 46 49 52 55 55 56 56 51 45 41 40 39 39 38 38 38 38 39 36 32 26 19 14 14 14 22 23
20 23 26 27 28 30 30 35 33 35 37 34 28 27 28 27 27 29 32 34 35 39 43 44 44 45 45 45 47 50 51 53 54 56 54 44 38 37 39 37 36 37 37 36 36 37 35 31 26 19 16 15 15 25
23 25 26 27 27 30 32 37 37 38 39 32 26 25 28 30 31 32 33 37 37 37 42 46 45 45 44 45 46 48 49 51 52 54 56 48 43 39 38 36 35 34 33 36 35 35 35 34 30 26 21 18 17 16
24 25 25 27 29 31 33 38 40 41 38 29 24 24 27 30 34 35 37 39 40 40 41 44 45 45 43 43 45 47 48 49 50 52 55 52 47 44 37 36 35 35 33 32 35 35 35 34 33 30 26 22 21 20
26 27 27 32 30 32 35 37 40 37 39 27 22 25 27 30 34 38 40 40 38 39 43 43 44 44 43 42 44 47 48 48 50 51 55 55 53 49 41 36 34 34 34 32 33 36 35 35 34 33 30 27 24 24
29 28 31 30 30 30 33 36 40 41 32 24 28 28 27 29 33 37 34 35 38 40 42 43 45 44 45 46 46 48 49 49 49 52 54 55 56 54 48 37 37 35 35 34 34 36 37 37 37 35 33 30 28 27
27 30 30 31 34 32 34 38 41 49 40 33 34 32 31 28 31 33 33 38 44 43 44 46 46 46 48 50 50 51 51 51 51 53 53 53 54 57 50 39 40 36 36 37 35 36 38 39 39 39 36 34 33 30
29 29 28 33 34 38 35 38 42 47 51 40 37 32 28 27 28 32 35 39 40 40 44 47 48 48 51 53 53 54 54 55 53 56 56 56 56 58 49 44 42 37 38 38 39 37 40 41 42 43 40 37 37 37
32 31 31 31 41 43 39 43 46 48 51 38 32 28 24 26 30 33 36 39 41 42 48 50 53 54 55 55 57 57 58 59 58 58 60 60 58 54 50 47 44 39 40 41 42 40 42 45 44 45 43 41 39 42
28 25 31 35 40 44 43 43 46 46 46 31 28 29 26 29 32 36 36 41 40 44 49 52 55 56 57 59 60 61 62 62 64 61 62 62 60 54 50 46 44 40 42 43 46 45 45 49 48 48 47 45 43 44
27 30 35 32 42 43 42 44 42 41 36 29 29 31 32 34 37 40 43 46 49 51 51 54 57 61 61 62 63 64 64 66 66 66 65 65 61 57 51 48 45 43 43 45 47 46 47 51 52 52 50 49 47 48
31 31 33 34 39 35 39 43 40 36 35 34 33 35 37 38 40 43 45 50 54 54 57 59 60 62 64 66 67 68 67 67 68 70 67 67 65 60 53 50 46 45 45 48 48 47 49 52 54 54 53 52 51 52
33 31 31 34 39 39 40 40 39 38 42 39 41 43 43 44 45 49 51 52 57 59 65 66 65 65 67 69 70 72 70 68 71 70 70 70 67 60 53 51 47 47 48 50 50 50 51 54 56 57 55 54 53 56
32 33 33 31 35 40 39 36 35 38 38 43 49 52 50 49 51 54 56 60 62 65 69 70 71 71 72 75 74 74 70 72 74 72 72 75 62 57 54 52 50 50 52 52 51 52 54 57 59 59 57 54 56 56
34 33 32 33 39 42 39 40 38 42 45 49 53 52 52 53 54 55 58 59 61 66 71 75 77 76 75 75 77 72 68 72 72 72 74 70 59 56 54 53 52 53 55 53 53 55 58 59 59 59 56 56 59 56
32 32 30 35 40 43 42 41 43 45 48 51 53 55 56 60 60 62 60 60 64 68 72 74 76 77 76 75 74 66 72 70 72 74 71 64 59 57 55 55 55 57 56 55 57 59 60 59 59 59 56 58 56 52
35 30 36 43 41 41 39 40 43 47 49 51 53 58 63 66 64 59 57 57 61 65 68 70 71 71 71 70 67 71 73 72 74 75 66 62 60 57 57 57 58 58 57 61 61 60 58 58 58 57 57 59 53 47
31 39 43 42 41 42 44 44 47 50 51 56 55 54 53 52 50 51 52 53 56 60 63 66 67 67 66 68 70 71 71 73 74 67 63 61 59 58 58 59 59 60 64 62 61 58 56 57 56 56 58 53 49 40
38 40 38 36 39 43 47 48 51 58 56 53 52 53 54 53 53 55 57 58 60 62 64 66 69 70 69 69 70 70 73 69 65 64 61 60 59 59 59 60 65 66 64 63 60 55 54 54 55 56 51 47 40 35
39 36 39 40 40 44 50 57 59 56 54 53 53 53 55 56 58 60 63 64 66 67 66 68 68 69 70 71 70 68 68 67 65 63 61 60 60 62 66 69 68 65 64 61 56 52 52 53 54 48 43 39 33 31
46 43 44 49 56 58 59 60 57 55 54 55 55 57 59 62 64 65 66 69 70 72 74 73 71 71 70 71 71 69 67 65 64 62 61 62 67 71 71 69 66 64 61 57 53 51 51 52 46 39 36 32 31 30
51 52 54 55 55 58 59 58 57 57 58 58 59 62 64 67 68 69 72 76 76 74 73 74 74 75 73 70 67 66 64 62 62 64 68 72 72 72 69 67 65 63 60 55 52 51 51 46 37 33 30 29 29 28
48 50 52 53 55 58 59 59 62 61 62 65 67 70 71 73 75 77 79 80 81 79 78 76 75 74 71 69 67 65 63 65 69 73 74 72 71 69 68 67 65 63 60 56 52 50 45 39 30 30 28 27 26 27
50 51 53 55 58 60 63 63 65 67 70 71 73 76 77 78 80 81 82 82 81 80 79 76 73 71 70 68 66 67 71 74 76 75 73 71 70 68 67 66 64 62 59 56 52 47 43 34 27 29 28 25 22 25
51 53 57 60 62 64 65 68 71 73 74 76 78 79 80 81 82 83 83 82 82 79 77 75 73 70 69 69 71 75 78 77 76 75 74 72 71 69 67 65 63 60 57 53 48 44 40 32 27 28 30 27 22 23
57 62 64 67 69 69 71 72 74 75 77 79 81 82 83 84 85 85 81 81 79 77 74 72 70 70 73 76 78 78 77 76 76 74 73 72 71 70 68 66 62 58 54 49 45 40 36 30 27 28 28 30 28 27
63 65 67 69 71 72 74 76 79 80 82 83 84 84 85 85 84 81 80 78 74 71 70 71 74 76 78 77 77 77 75 73 72 72 73 73 72 70 67 63 58 53 49 44 39 36 30 26 26 27 27 28 30 29
64 65 67 70 73 76 79 81 82 82 83 84 84 83 82 80 77 74 71 71 70 71 74 76 77 77 76 74 73 73 74 75 75 75 75 73 71 68 64 59 53 47 42 38 35 30 26 25 25 25 25 26 27 28
69 71 73 75 78 80 80 80 81 82 82 81 78 74 71 69 69 69 70 72 74 75 76 77 76 76 75 75 75 76 76 76 75 75 73 71 69 65 60 55 48 41 36 33 28 25 23 25 26 25 25 25 26 26
73 75 77 78 79 80 79 77 74 71 69 68 68 67 68 68 71 73 74 74 74 74 74 74 75 75 75 76 77 77 75 74 72 71 70 69 66 63 58 51 44 36 30 27 26 23 24 26 26 26 26 26 26 28
74 70 65 62 61 63 65 67 67 66 65 64 66 69 71 71 72 73 72 72 73 74 75 75 76 77 76 75 74 73 74 74 73 71 68 65 62 58 54 47 40 33 30 30 30 29 26 26 27 27 28 29 28 28
59 61 61 60 60 61 62 63 64 65 68 70 70 70 70 70 69 71 71 71 73 74 75 74 74 74 74 73 73 72 72 70 68 66 64 61 57 54 49 41 33 31 30 30 29 29 31 31 31 30 31 30 30 32
53 55 56 58 60 61 63 65 66 67 67 67 66 65 66 67 68 68 69 71 71 71 71 70 72 73 72 72 71 69 67 64 62 60 58 55 52 48 42 37 33 32 32 31 31 31 31 31 31 31 31 31 33 32
Wind_Direction
269 283 290 302 314 320 322 325 325 324 327 326 321 322 331 338 342 348 348 350 348 346 349 348 349 349 350 353 353 355 0 3 5 6 2 1 2 4 5 3 6 5 5 7 10 11 7 2 344 325 320 318 257 260
274 282 294 299 309 317 323 325 324 322 324 323 317 318 324 332 333 338 341 343 346 345 346 344 342 343 346 349 349 350 355 0 1 4 1 357 356 355 358 359 359 0 3 358 1 4 5 1 352 336 308 298 307 256
281 286 292 298 311 317 323 323 324 325 323 318 311 313 320 325 328 331 338 340 339 340 338 341 337 339 341 346 347 348 351 356 358 1 360 356 355 350 349 352 352 354 356 358 355 354 356 3 357 344 329 298 284 289
278 286 289 298 306 313 317 320 324 323 320 311 304 311 318 323 323 327 336 336 340 340 340 339 339 339 339 342 344 343 347 352 354 356 358 355 352 350 347 343 347 346 346 349 352 350 347 349 356 355 338 322 295 276
276 285 285 297 301 311 314 317 323 316 317 307 302 311 314 319 321 327 335 338 342 339 342 344 342 339 339 340 341 341 343 348 352 353 354 354 352 349 345 338 339 341 339 339 342 347 347 341 339 349 352 332 315 291
282 281 291 302 301 306 309 312 316 312 317 309 302 306 310 317 318 322 329 331 336 338 340 344 345 344 343 342 341 342 342 345 350 350 350 352 350 345 345 338 334 336 338 331 334 337 342 340 335 331 341 346 326 307
275 281 288 291 299 308 305 309 312 316 319 306 306 311 308 316 314 318 326 330 331 329 330 333 336 340 344 344 345 343 343 342 347 347 347 348 345 342 346 335 332 332 332 332 327 329 331 334 335 328 324 334 339 318
276 286 292 292 295 302 302 306 311 311 316 304 300 310 311 308 313 315 317 323 329 326 330 333 334 339 340 342 341 343 343 340 344 343 345 346 343 342 343 333 331 328 329 331 329 321 326 325 327 327 321 319 330 330
273 280 298 293 297 295 300 304 310 310 314 305 298 305 305 307 311 313 320 324 322 322 326 328 332 336 337 336 337 338 341 340 342 340 342 343 342 340 337 333 330 326 327 328 329 322 322 324 321 320 321 315 321 327
271 278 285 289 286 288 298 300 308 317 319 301 301 300 300 301 305 313 319 323 324 327 328 329 330 332 334 332 333 333 337 338 338 338 338 342 340 338 335 330 329 326 327 326 326 324 320 321 321 317 317 315 316 322
267 273 276 279 286 298 298 302 309 319 321 296 298 298 298 298 305 313 319 323 323 321 324 327 327 328 328 329 330 331 332 334 333 337 336 337 338 337 334 331 328 326 326 325 323 321 319 316 319 317 314 314 314 320
266 269 278 275 286 292 299 303 307 314 312 306 303 301 306 310 313 319 323 325 327 325 324 325 326 325 327 326 327 329 329 331 329 333 331 335 337 335 332 329 326 325 324 323 321 318 316 314 316 316 313 312 313 319
268 270 276 279 285 285 294 300 304 301 306 309 307 307 312 315 321 321 324 322 324 323 326 326 327 324 324 324 324 326 327 328 327 329 329 334 334 331 328 326 326 324 322 321 318 316 315 314 314 314 313 311 313 320
269 268 273 279 285 286 298 299 302 302 305 303 303 304 310 321 320 322 321 324 323 323 323 324 323 322 320 320 320 322 324 323 328 327 329 330 329 327 325 324 324 322 321 319 317 315 314 312 313 314 313 312 316 318
264 264 273 282 286 287 285 293 295 298 300 301 301 306 317 318 319 319 319 319 320 320 320 319 318 317 318 317 318 321 322 322 324 324 326 327 325 323 322 322 320 320 319 317 315 314 312 312 313 313 312 312 318 317
263 267 274 278 281 276 282 290 293 293 296 298 304 310 311 312 315 315 316 317 318 317 316 317 316 317 318 320 321 321 318 321 319 322 323 322 322 321 320 319 319 318 317 315 314 315 313 313 312 311 311 315 318 317
261 270 276 279 278 278 285 290 291 293 298 303 304 307 311 312 313 315 314 315 315 317 317 317 317 317 320 320 321 317 317 317 318 322 320 320 320 319 318 318 317 315 314 315 315 315 312 311 311 310 312 317 316 314
267 268 270 276 279 282 284 284 287 291 296 302 308 311 313 316 316 315 313 311 311 312 311 313 314 315 317 317 315 314 314 316 318 318 318 318 317 316 315 314 313 314 316 315 314 313 311 310 309 309 313 315 315 311
264 265 269 278 279 280 280 283 288 293 298 307 310 309 309 310 311 312 313 311 309 307 308 309 309 312 313 313 313 313 313 314 315 316 315 315 314 312 311 312 314 314 314 313 312 310 308 307 307 309 312 314 314 310
265 269 273 275 271 273 277 284 289 294 301 305 307 309 309 309 309 310 310 311 309 310 310 311 313 312 312 312 313 314 314 314 314 314 313 311 311 311 313 314 313 313 311 311 310 307 305 304 306 309 310 312 308 306
266 268 268 270 275 283 285 287 290 296 300 301 304 304 305 305 306 308 310 309 309 312 312 313 312 311 312 313 314 314 313 313 312 311 310 309 311 313 312 312 312 311 311 311 308 305 302 304 306 306 308 308 303 305
263 264 266 269 272 276 279 285 291 295 297 299 300 302 303 304 306 308 307 308 310 310 311 310 310 311 312 313 312 311 310 310 309 309 309 310 311 310 312 312 312 312 312 310 306 303 304 305 303 301 302 305 308 309
263 265 269 272 275 279 283 289 291 295 298 299 301 302 303 304 305 305 306 308 308 308 308 308 310 311 310 309 309 308 308 308 308 309 310 311 310 311 311 311 311 311 310 309 306 305 303 303 296 290 291 303 306 313
268 271 275 278 280 284 286 290 293 296 297 300 300 302 304 305 305 306 306 305 305 305 306 308 309 309 308 307 307 307 307 309 309 310 309 309 309 309 309 310 310 309 308 307 307 306 304 297 285 277 277 291 301 307
273 276 280 281 283 287 289 291 292 294 297 300 301 303 303 303 302 302 303 305 305 306 306 306 306 306 306 306 307 308 309 309 309 308 308 309 309 309 309 309 308 307 305 303 302 301 299 290 275 267 268 275 285 295
276 277 278 279 284 289 292 295 296 298 299 299 300 299 298 298 300 303 305 305 305 304 304 304 304 306 307 308 307 307 307 308 307 308 307 307 307 307 308 308 306 304 303 301 300 298 296 283 266 260 263 267 276 286
278 281 284 287 289 291 294 295 296 297 296 296 295 297 297 300 301 303 303 302 302 303 304 305 306 306 305 305 305 305 305 304 304 303 304 305 306 307 306 305 302 301 298 298 296 294 288 272 262 259 264 267 271 277
283 286 289 291 292 293 292 292 292 293 294 295 297 298 299 301 301 302 302 303 303 304 304 304 303 302 303 302 302 303 302 302 303 304 305 305 306 305 304 302 300 297 294 293 291 286 273 266 263 261 265 272 277 277
287 289 288 287 287 287 288 290 291 293 295 296 297 298 299 299 301 302 302 303 304 303 302 302 302 302 302 302 302 302 303 304 305 306 306 306 306 304 303 301 297 292 288 285 280 270 263 262 261 261 264 268 273 275
282 283 284 286 287 288 290 291 293 294 296 297 298 299 299 300 301 302 302 302 301 301 301 301 301 302 303 303 304 305 305 305 306 306 305 305 304 303 301 298 293 288 278 271 263 260 259 257 256 256 260 268 271 278
283 284 285 286 288 291 293 295 296 297 297 297 297 298 299 300 300 300 300 300 301 301 302 303 303 304 305 305 306 306 307 307 307 306 304 302 301 299 296 294 289 279 268 263 261 255 259 260 259 265 268 267 266 271
286 288 290 291 293 294 294 294 294 294 295 297 298 298 298 299 299 301 301 302 302 302 304 305 305 306 306 307 308 308 307 307 305 304 303 301 299 297 295 290 279 268 265 263 264 261 258 258 260 264 266 264 268 276
287 289 290 290 290 290 291 293 294 295 296 297 298 299 299 300 300 302 302 302 304 306 307 308 308 309 309 308 308 309 309 308 306 304 303 300 297 294 290 282 268 257 257 256 254 255 256 256 256 260 262 265 270 270